COSMOS 996

导读 | 星芒AI

COSMOS 996 是一颗由苏联于1978年发射的军用通信卫星,属于“宇宙”(COSMOS)系列。该卫星主要用于军事通信和侦察任务,搭载了先进的电子设备,以支持苏联的国家安全和战略指挥系统。COSMOS 996 的具体技术细节和任务内容未公开,因其属于高度机密项目。该系列卫星在冷战期间发挥了重要作用,展示了苏联在空间技术领域的实力。COSMOS 996 最终进入地球轨道并长期运行,成为苏联航天计划的重要组成部分。

基本信息
目录编号:
10744
目录名称:
COSMOS 996
国际标识:
1978-031A
轨道中心:
EARTH
卫星名称:
COSMOS 996
卫星全名:
--
卫星状态:
在轨 (已飞行17429 天)
发射日期:
1978-03-28 UTC
国别 :
俄罗斯(独联体) (CIS)
星等 :
--
轨道信息
数据来源 国际轨道数据 AOE轨道数据
星历时间 2025-12-14T13:36:50+0800
1天前
查看轨道信息
2025-12-14T12:00:00+0800
1天前
查看轨道信息
半长轴 7353.69km 7353.691km
偏心率 0.0036058 0.0036113
轨道倾角 82.927° 82.928°
近地点辐角 218.059° 218.142°
升交点赤经 236.257° 236.309°
平近点角 262.224° 289.073°
近地点 949.039km 948.999km
远地点 1002.071km 1002.113km
周期 104.597分钟 104.597分钟
每日圈数 13.767175 13.767173
详细信息
使用方式:
暂无
2D轨道图
3D轨道图
轨道高度分析图
轨道倾角分析图
轨道综合分析图
查看轨道综合分析图